Location: Unspecified
(0.0000°N, 0.0000°E)
Time: 04:59:32
(UTC+00:00)

N. Korean satellite - Pass Details

Date: 14 May 2021
Orbit: 450 x 501 km, 97.2° (Epoch: 16 May)

Event Time Altitude Azimuth Distance (km) Brightness Sun altitude
Rises 04:21:32 0° 36° (NE) 2,444 11.0 -22.4°
Reaches altitude 10° 04:23:57 10° 54° (NE) 1,580 10.2 -21.8°
Maximum altitude 04:26:25 19° 101° (ESE) 1,143 9.1 -21.2°
Drops below altitude 10° 04:28:55 10° 148° (SSE) 1,599 9.3 -20.7°
Sets 04:31:23 0° 167° (SSE) 2,484 10.1 -20.1°
